Central Park, NY

8:05 AM EDT on May 22, 2018 (GMT -0400)
Central Park

Weather History for KNYC - December, 2012

Change the Weather History Date:

Tuesday, December 11, 2012

  Actual Average Record
Temperature  
Mean Temperature 50 °F 39 °F  
Max Temperature 58 °F 44 °F 64 °F (1879)
Min Temperature 41 °F 33 °F 6 °F (1880)
Degree Days  
Heating Degree Days 15 26  
Month to date heating degree days 201 268  
Since 1 July heating degree days 1072 1101  
Cooling Degree Days 0 0  
Month to date cooling degree days 0 0  
Year to date cooling degree days 1277 1105  
Moisture  
Dew Point 33 °F    
Average Humidity 71    
Maximum Humidity 93    
Minimum Humidity 49    
Precipitation  
Precipitation 0.06 in 0.14 in 2.41 in (1992)
Month to date precipitation 0.88 1.53  
Year to date precipitation 34.59 47.47  
Snow  
Snow 0.00 in 0.10 in 3.60 in (1960)
Month to date snowfall 0.0 1.1  
Since 1 July snowfall 4.7 1.4  
Snow Depth 0.00 in    
Sea Level Pressure  
Sea Level Pressure 29.90 in    
Wind  
Wind Speed 6 mph (NW)    
Max Wind Speed 15 mph    
Max Gust Speed 24 mph    
Visibility 10 miles    
Events Rain    
T = Trace of Precipitation, MM = Missing Value Source: NWS Daily Summary

Daily Weather History Graph

Daily Weather History Graph

Search for Another Location

Airport or City:

Astronomy

Dec. 11, 2012 Rise Set
Actual Time 7:10 AM EST 4:28 PM EST
Civil Twilight 6:39 AM EST 4:59 PM EST
Nautical Twilight 6:05 AM EST 5:33 PM EST
Astronomical Twilight 5:31 AM EST 6:07 PM EST
Moon 5:01 AM EST (12/11) 3:05 PM EST (12/11)
Length of Visible Light 10h 19m
Length of Day
9h 18m
Waning Crescent, 4% of the Moon is Illuminated
Dec 11
Waning Crescent
Dec 13
New
Dec 20
First Quarter
Dec 28
Full
Jan 4
Last Quarter

Hourly Weather History & Observations

Time (EST) Temp. Windchill Dew Point Humidity Pressure Visibility Wind Dir Wind Speed Gust Speed Precip Events Conditions
12:34 AM 52.0 °F - 46.9 °F 83% 29.62 in 7.0 mi Variable 5.8 mph 24.2 mph N/A   Overcast
12:43 AM 51.1 °F - 43.0 °F 74% 29.63 in 10.0 mi NW 8.1 mph 17.3 mph N/A   Overcast
12:51 AM 50.0 °F - 43.0 °F 77% 29.62 in 9.0 mi WNW 6.9 mph - 0.00 in Rain Light Rain
1:51 AM 48.0 °F - 41.0 °F 77% 29.65 in 10.0 mi WNW 9.2 mph 21.9 mph 0.02 in   Overcast
2:48 AM 46.4 °F 41.9 °F 41.0 °F 81% 29.73 in 6.0 mi WNW 9.2 mph - 0.01 in Rain Light Rain
2:51 AM 46.0 °F 41.4 °F 39.9 °F 79% 29.71 in 8.0 mi WNW 9.2 mph 17.3 mph 0.01 in Rain Light Rain
3:51 AM 46.0 °F 43.9 °F 39.0 °F 76% 29.71 in 10.0 mi Variable 4.6 mph - 0.00 in   Overcast
4:51 AM 45.0 °F 42.6 °F 37.0 °F 74% 29.73 in 10.0 mi Variable 4.6 mph - N/A   Overcast
5:51 AM 43.0 °F 39.5 °F 37.9 °F 82% 29.76 in 9.0 mi NW 5.8 mph - 0.00 in Rain Light Rain
6:51 AM 43.0 °F 40.3 °F 37.0 °F 80% 29.85 in 10.0 mi WNW 4.6 mph 18.4 mph 0.02 in Rain Light Rain
7:04 AM - - - N/A% - - North - - N/A   Unknown
7:51 AM 43.0 °F 39.5 °F 35.1 °F 74% 29.86 in 10.0 mi Variable 5.8 mph - 0.01 in   Overcast
8:51 AM 44.1 °F 40.8 °F 33.1 °F 65% 29.88 in 10.0 mi Variable 5.8 mph - N/A   Overcast
9:51 AM 44.1 °F 40.1 °F 30.9 °F 60% 29.90 in 10.0 mi WNW 6.9 mph - N/A   Clear
10:51 AM 45.0 °F 41.2 °F 32.0 °F 60% 29.92 in 10.0 mi North 6.9 mph - N/A   Mostly Cloudy
11:51 AM 46.0 °F 42.5 °F 30.0 °F 54% 29.93 in 10.0 mi West 6.9 mph - N/A   Overcast
12:51 PM 46.0 °F 42.5 °F 30.9 °F 56% 29.94 in 10.0 mi WNW 6.9 mph - N/A   Overcast
1:51 PM 46.9 °F - 30.0 °F 52% 29.96 in 10.0 mi WNW 5.8 mph - N/A   Partly Cloudy
2:51 PM 46.9 °F - 28.9 °F 50% 29.98 in 10.0 mi Variable 6.9 mph - N/A   Mostly Cloudy
3:51 PM 45.0 °F 43.5 °F 28.0 °F 52% 30.01 in 10.0 mi Variable 3.5 mph - N/A   Mostly Cloudy
4:51 PM 45.0 °F - 28.0 °F 52% 30.03 in 10.0 mi Calm Calm - N/A   Overcast
5:51 PM 44.1 °F 40.8 °F 28.0 °F 53% 30.07 in 10.0 mi Variable 5.8 mph - N/A   Overcast
6:51 PM 44.1 °F - 28.9 °F 55% 30.10 in 10.0 mi Calm Calm - N/A   Overcast
7:51 PM 43.0 °F 40.3 °F 28.0 °F 56% 30.13 in 10.0 mi WNW 4.6 mph - N/A   Overcast
8:51 PM 42.1 °F - 26.1 °F 53% 30.14 in 10.0 mi North - - N/A   Overcast
9:51 PM 42.1 °F 37.7 °F 26.1 °F 53% 30.17 in 10.0 mi North 6.9 mph - N/A   Overcast
10:51 PM 41.0 °F 36.4 °F 25.0 °F 53% 30.18 in 10.0 mi WNW 6.9 mph - N/A   Overcast
11:51 PM 41.0 °F 39.0 °F 27.0 °F 57% 30.20 in 10.0 mi WNW 3.5 mph - N/A   Overcast